SCP
-0 0 -0 -0 0 0 1 2 2 2 4 4 4 4 4 3 2 2 1 1 1 0
0 0 0 0 0 0 0 0 1 2 2 3 4 4 3 3 4 4 4 2 1 1
0 0 0 0 0 0 0 1 1 1 2 3 3 4 3 3 3 5 3 2 2 2
0 -0 0 0 0 0 0 1 1 1 1 2 2 2 3 3 3 4 4 2 1 2
0 -0 -0 0 0 0 0 0 1 0 0 1 1 2 2 3 3 3 3 3 2 2
-0 0 0 0 0 0 0 0 1 1 0 0 1 1 2 2 2 2 2 2 2 1
-0 0 0 0 0 0 0 0 1 0 0 0 0 1 1 1 2 3 3 2 1 1
0 0 0 0 0 0 0 0 1 1 1 1 1 1 2 2 2 2 2 1 1 1
0 0 0 0 0 0 0 0 1 1 1 1 1 0 1 1 1 2 1 1 0 0
0 0 0 0 0 0 0 1 1 1 1 0 1 1 0 0 1 1 1 0 0 0
0 0 0 0 0 0 0 1 1 1 0 1 1 0 0 0 1 0 0 0 0 0
0 0 0 0 0 0 0 0 0 0 0 0 0 0 0 0 0 0 0 0 0 0
0 0 0 0 0 0 0 0 0 0 0 0 0 0 0 0 0 0 0 0 0 0
0 0 0 0 0 0 0 0 0 0 0 0 0 0 0 0 0 0 0 0 0 0
Wind_Speed_500mb
48 43 43 39 38 41 38 42 51 55 64 64 67 65 60 52 46 43 44 50 48 46
49 45 45 46 49 46 43 43 44 54 55 62 66 69 65 57 57 57 49 42 42 48
51 49 48 47 46 47 53 50 52 54 59 61 65 70 65 59 61 60 51 45 41 42
54 51 50 49 48 49 51 48 47 55 61 61 66 73 71 64 59 62 57 50 43 44
59 55 54 52 51 49 51 51 49 58 56 62 67 65 67 66 58 51 51 49 44 43
60 56 56 56 55 51 50 55 47 55 59 57 61 61 66 62 58 51 49 50 47 47
58 58 60 56 52 53 50 49 44 53 58 59 64 66 60 60 56 47 47 50 44 49
60 56 54 47 49 51 50 50 43 50 51 56 59 62 67 57 54 53 46 45 43 48
56 54 49 42 45 46 52 43 41 41 40 48 59 72 29 46 47 53 51 48 49 56
53 51 47 34 42 40 50 36 38 39 40 39 40 46 43 43 57 50 57 59 55 61
46 45 42 34 40 39 37 27 32 36 39 34 38 33 35 38 53 63 58 58 59 63
40 41 36 34 32 36 25 26 21 31 34 33 30 19 15 23 40 45 52 61 57 64
35 38 29 30 28 34 26 24 26 25 31 29 20 14 27 27 34 42 61 66 69 77
32 36 23 27 27 21 21 19 21 20 22 23 20 21 19 24 36 44 48 42 48 89
Wind_Direction_500mb
301 298 291 291 278 270 267 267 257 260 242 239 228 237 223 219 222 227 226 232 236 237
296 292 287 284 281 272 265 270 270 247 247 242 228 227 232 214 224 224 228 237 241 241
292 290 288 286 283 273 261 246 250 247 244 236 231 225 230 226 223 227 233 235 235 240
294 291 288 285 283 276 269 254 255 253 246 240 235 226 227 222 225 227 235 241 237 232
293 292 287 284 284 278 271 263 257 251 245 241 236 230 223 219 220 221 227 236 243 237
292 289 284 282 284 277 270 266 252 254 244 235 236 230 224 219 221 222 227 236 234 241
288 283 277 275 281 273 268 262 253 252 240 232 227 219 220 225 220 222 222 234 229 235
287 285 280 274 279 272 272 255 252 247 238 229 218 223 220 223 223 228 229 234 232 224
283 285 282 275 277 272 271 255 243 235 223 223 220 240 217 232 232 232 237 228 223 214
283 281 279 272 273 273 271 253 242 227 222 218 222 222 227 228 239 231 228 228 223 207
280 277 273 276 268 275 264 262 244 237 233 231 227 242 238 231 232 238 236 235 226 222
273 274 266 279 263 268 266 256 250 234 229 232 233 237 250 243 230 230 225 219 225 226
268 264 263 270 273 261 272 271 247 234 231 225 222 233 236 229 219 213 203 199 195 192
275 258 253 259 261 262 280 275 240 226 212 204 201 217 205 214 208 198 188 198 210 172
Wind_Speed_850mb
48 43 43 39 38 41 38 42 51 55 64 64 67 65 60 52 46 43 44 50 48 46
49 45 45 46 49 46 43 43 44 54 55 62 66 69 65 57 57 57 49 42 42 48
51 49 48 47 46 47 53 50 52 54 59 61 65 70 65 59 61 60 51 45 41 42
54 51 50 49 48 49 51 48 47 55 61 61 66 73 71 64 59 62 57 50 43 44
59 55 54 52 51 49 51 51 49 58 56 62 67 65 67 66 58 51 51 49 44 43
60 56 56 56 55 51 50 55 47 55 59 57 61 61 66 62 58 51 49 50 47 47
58 58 60 56 52 53 50 49 44 53 58 59 64 66 60 60 56 47 47 50 44 49
60 56 54 47 49 51 50 50 43 50 51 56 59 62 67 57 54 53 46 45 43 48
56 54 49 42 45 46 52 43 41 41 40 48 59 72 29 46 47 53 51 48 49 56
53 51 47 34 42 40 50 36 38 39 40 39 40 46 43 43 57 50 57 59 55 61
46 45 42 34 40 39 37 27 32 36 39 34 38 33 35 38 53 63 58 58 59 63
40 41 36 34 32 36 25 26 21 31 34 33 30 19 15 23 40 45 52 61 57 64
35 38 29 30 28 34 26 24 26 25 31 29 20 14 27 27 34 42 61 66 69 77
32 36 23 27 27 21 21 19 21 20 22 23 20 21 19 24 36 44 48 42 48 89
Wind_Direction_850mb
301 298 291 291 278 270 267 267 257 260 242 239 228 237 223 219 222 227 226 232 236 237
296 292 287 284 281 272 265 270 270 247 247 242 228 227 232 214 224 224 228 237 241 241
292 290 288 286 283 273 261 246 250 247 244 236 231 225 230 226 223 227 233 235 235 240
294 291 288 285 283 276 269 254 255 253 246 240 235 226 227 222 225 227 235 241 237 232
293 292 287 284 284 278 271 263 257 251 245 241 236 230 223 219 220 221 227 236 243 237
292 289 284 282 284 277 270 266 252 254 244 235 236 230 224 219 221 222 227 236 234 241
288 283 277 275 281 273 268 262 253 252 240 232 227 219 220 225 220 222 222 234 229 235
287 285 280 274 279 272 272 255 252 247 238 229 218 223 220 223 223 228 229 234 232 224
283 285 282 275 277 272 271 255 243 235 223 223 220 240 217 232 232 232 237 228 223 214
283 281 279 272 273 273 271 253 242 227 222 218 222 222 227 228 239 231 228 228 223 207
280 277 273 276 268 275 264 262 244 237 233 231 227 242 238 231 232 238 236 235 226 222
273 274 266 279 263 268 266 256 250 234 229 232 233 237 250 243 230 230 225 219 225 226
268 264 263 270 273 261 272 271 247 234 231 225 222 233 236 229 219 213 203 199 195 192
275 258 253 259 261 262 280 275 240 226 212 204 201 217 205 214 208 198 188 198 210 172